Other Public Products
Issued by NWS Grand Forks, ND

Home | Current Version | Previous Version | Graphics & Text | Print | Product List | Glossary Off
Versions: 1 2 3 4 5 6 7 8 9 10 11 12 13 14 15 16 17 18 19 20 21 22 23 24 25 26 27 28 29 30 31 32 33 34 35 36 37 38 39 40 41 42 43 44 45 46 47 48 49 50

000
FPUS83 KFGF 031931
OPUFGF
PRAIRIE TO PINES WEATHER ROUNDUP
NATIONAL WEATHER SERVICE EASTERN NORTH DAKOTA/GRAND FORKS ND
200 PM CDT THU SEP 03 2015

 **SATELLITE DATA USED TO AUGMENT SKY COVER AT AUTOMATED STATIONS**
 *****  WEATHER ACROSS EASTERN NORTH DAKOTA  *****

CITY           SKY/WX    TMP DP  RH WIND       PRES   REMARKS
GRAND FORKS    MOSUNNY   89  71  55 S24G33    29.72F HX  95
GRAND FORKS AF SUNNY     89  72  58 S28G35    29.72F HX  95
GRAND CITY NWS   N/A     88 N/A N/A S10         N/A
BUXTON         NOT AVBL
DEVILS LAKE    SUNNY     88  70  55 SE21      29.69F HX  92
FARGO          SUNNY     91  71  51 SE21G29   29.77S HX  97
WAHPETON ARPT  CLEAR     90  66  45 S16       29.79F HX  92
$$

 *****  WEATHER ACROSS CENTRAL AND WESTERN NORTH DAKOTA  *****

CITY           SKY/WX    TMP DP  RH WIND       PRES   REMARKS
JAMESTOWN      SUNNY     92  69  47 S17G24    29.72F HX  97
BISMARCK       MOSUNNY   94  61  33 S10       29.67F HX  94
MINOT          SUNNY     90  65  43 SE8       29.63S HX  92
MINOT AFB      SUNNY     91  70  49 S5        29.62F HX  96
GARRISON         N/A     90  62  39 S12       29.65S HX  90
WILLISTON      SUNNY     87  57  35 N16G25    29.71F
DICKINSON      MOSUNNY   88  54  31 NW14      29.71S
HETTINGER      MOSUNNY   91  43  18 W10       29.75S
$$

 *****  OTHER OBSERVATIONS NORTHEAST NORTH DAKOTA  *****

CITY           SKY/WX    TMP DP  RH WIND       PRES   REMARKS
WALHALLA       FAIR      82  75  78 MISG      29.71F
LANGDON        FAIR      86  70  58 SE16G26   29.73F HX  90
CAVALIER       FAIR      86  72  62 S12G23    29.71F HX  92
GRAFTON        FAIR      88  73  62 SE23G29   29.72F HX  96
CANDO          FAIR      86  72  62 S16G22    29.69S HX  92
FORT TOTTEN      N/A     87  71  59 S13       29.95S HX  93
ROLLA            N/A     86  68  54 S15G23    29.69F
RUGBY          FAIR      91  68  46 S9G24     29.64F HX  95
 ***** THE ABOVE OBSERVATIONS ARE NON NWS ARE NOT QUALITY
        CONTROLLED AND MAY MIS-REPORT RAIN FOR SNOW...
$$

 *****  OTHER OBSERVATIONS SOUTHEAST NORTH DAKOTA *****

CITY           SKY/WX    TMP DP  RH WIND       PRES   REMARKS
COOPERSTOWN    NOT AVBL
VALLEY CITY    FAIR      90  75  62 SE17      29.74F HX 100
OAKES            N/A     95  86  75 S17       29.75S HX 128
GWINNER          N/A     93 N/A N/A S16G24    29.76F
SHEYENNE NWR     N/A     87  72  60 SE14      29.95S HX  93
BUFFALO        NOT AVBL
WYNDMERE         N/A     90  72  55 SE14        N/A  HX  96
 ***** THE ABOVE OBSERVATIONS ARE NON NWS ARE NOT QUALITY
       CONTROLLED AND MAY MIS-REPORT RAIN FOR SNOW...
$$

  *****  WEATHER ACROSS NORTHERN MINNESOTA  *****

CITY           SKY/WX    TMP DP  RH WIND       PRES   REMARKS
FLAG ISLAND    SUNNY     73  64  73 S12       29.84F
WARROAD        SUNNY     84  72  65 SE13G18   29.82F
ROSEAU         SUNNY     88  73  62 S15G22    29.80F HX  96
HALLOCK        SUNNY     91  72  52 SE25      29.71F HX  98
THF RVR FALLS  SUNNY     88  70  55 S16G23    29.79S HX  92
HALSTAD        NOT AVBL
FOSSTON        SUNNY     88  66  48 S13G20    29.83S HX  90
BAUDETTE       SUNNY     83  65  54 SE14G22   29.86F
WASKISH        SUNNY     82  66  57 E10G18    29.87F
CROOKSTON      SUNNY     90  72  55 S21G30    29.76F HX  96
$$
  *****  WEATHER ACROSS CENTRAL AND WEST MINNESOTA  *****

CITY           SKY/WX    TMP DP  RH WIND       PRES   REMARKS
BEMIDJI        SUNNY     83  69  62 SE15G21   29.87F
PARK RAPIDS    MOSUNNY   84  69  60 SE16      29.88F
WADENA         MOSUNNY   82  70  65 SE15      29.87F
DETROIT LAKES  SUNNY     82  70  65 SE15G24   29.86F
MOORHEAD       SUNNY     90  72  55 S21       29.78F HX  96
FERGUS FALLS   SUNNY     84  72  65 SE14G21   29.81F
ELBOW LAKE     FAIR      83  73  71 SE15      29.84S HAZE
MORRIS MN      SUNNY     88  73  62 SE15      29.82F HX  96
STAPLES        MOSUNNY   82  70  65 S12       29.89F
WHEATON        SUNNY     82  72  69 SE14      29.82F
$$
  *****  WEATHER ELSEWHERE ACROSS MINNESOTA  *****

CITY           SKY/WX    TMP DP  RH WIND       PRES   REMARKS
DULUTH         MOSUNNY   67  63  87 E9        29.98F
INTRNTL FALLS  SUNNY     81  63  54 SE14      29.91F
ELY            SUNNY     79  59  50 SE8       29.99S
CLOQUET        CLOUDY    66  63  88 E7        29.98S
BRAINERD       MOSUNNY   80  68  66 SE9G17    29.92F
HIBBING        SUNNY     78  65  63 SE14G20   29.96F
ALEXANDRIA     SUNNY     82  73  74 SE16      29.89S
SAINT CLOUD    MOSUNNY   81  72  74 SE10G18   29.89F
MINNEAPOLIS    MOSUNNY   83  72  69 SE13      29.90S
$$

  *****  WEATHER ACROSS SOUTH DAKOTA  *****

CITY           SKY/WX    TMP DP  RH WIND       PRES   REMARKS
SIOUX FALLS    SUNNY     85  72  65 SE12G21   29.82F HX  91
BROOKINGS      SUNNY     88  70  55 SE18      29.84S HX  92
WATERTOWN      SUNNY     90  71  53 SE10G20   29.82F HX  96
HURON          SUNNY     89  70  53 SE17      29.77F HX  94
SISSETON         N/A     88  71  57 S16G25    29.79F HX  94
ABERDEEN       SUNNY     91  69  48 S20       29.76S HX  96
MITCHELL       SUNNY     90  72  55 SE12      29.78F HX  97
PIERRE         MOSUNNY   99  60  27 SE17      29.71F HX  99
MOBRIDGE       SUNNY     96  66  37 S16G25    29.68F HX  99
RAPID CITY     SUNNY     95  52  23 S8        29.77F HX  92
$$

  *****  SOME WEATHER IN NEARBY STATES *****

CITY           SKY/WX    TMP DP  RH WIND       PRES   REMARKS
GLASGOW MT     MOSUNNY   79  42  26 N14       29.80F
GREAT FALLS MT CLOUDY    59  42  53 N18G25    29.92F
CHEYENNE WY    PTSUNNY   83  37  19 SE8       30.05F
SCOTTSBLUFF NE PTSUNNY   89  48  24 W3        29.89F
OMAHA NE       MOSUNNY   90  69  50 S16       29.84F HX  94
DES MOINES IA  MOSUNNY   88  72  58 S10       29.88F HX  94
DAVENPORT IA   SUNNY     89  71  55 SW10      29.93F HX  95
CHICAGO IL     MOSUNNY   89  68  49 SW12      29.91F HX  93
EAU CLAIRE WI  SUNNY     79  68  69 E7        29.94S
LA CROSSE WI   MOSUNNY   87  72  60 VRB3      29.90F HX  93
$$

  *****  SOME NATIONAL WEATHER *****

CITY           SKY/WX    TMP DP  RH WIND       PRES   REMARKS
LA GUARDIA NY  PTSUNNY   90  64  42 CALM      29.83F HX  91
RALEIGH NC     PTSUNNY   88  65  46 CALM      29.93F HX  90
ATLANTA GA     PTSUNNY   88  70  55 NW7       29.97F THUNDER HX  92
NEW ORLEANS LA CLOUDY    83  73  72 S10       29.97F
OKLAHOMA CITY  MOSUNNY   91  64  40 S13G23    29.95F HX  92
ALBUQUERQUE NM MOSUNNY   81  47  30 VRB3      30.13F
SALT LAKE CITY PTSUNNY   85  39  19 SE25G33   29.89F
LOS ANGELES CA MOSUNNY   74  56  53 SE5       29.92F
BOISE ID       CLOUDY    63  43  48 NW16      29.93S
SEATTLE WA     PTSUNNY   60  49  66 SW8G17    30.02F
$$

*** WEATHER ACROSS MANITOBA...SASKATCHEWAN AND ONTARIO ***
                ***ONTARIO***

CITY           SKY/WX    TMP DP  RH WIND       PRES   REMARKS
GERALDTON      MOSUNNY   82  54  36 SE12      30.03F
THUNDER BAY    MOSUNNY   77  55  47 E9        30.02R
SIOUX LOOKOUT  MOSUNNY   82  61  47 S6        29.95F
TORONTO        PTSUNNY   84  72  65 SE9       29.93S
BIG TROUT LK   SUNNY     77  66  69 CALM      29.86R
PICKLE LAKE    MOSUNNY   84  50  30 S17       29.95F
DRYDEN         SUNNY     82  55  39 SE18      29.94S
KENORA         MOSUNNY   81  61  50 S13G23    29.88F
$$
                *** MANITOBA***

CITY           SKY/WX    TMP DP  RH WIND       PRES   REMARKS
BRANDON        CLOUDY    79  72  78 SE10      29.70S
DAUPHIN        PTSUNNY   77  72  83 NE15      29.66F
ISLAND LAKE    CLOUDY    70  63  78 S13       29.76S
PILOT MOUND      N/A     84  68  58 S17G26      N/A
THE PAS        CLOUDY    73  57  56 W13G18    29.74S
THOMPSON       PTSUNNY   77  63  61 SW8       29.67R
WINNIPEG       MOSUNNY   84  73  70 SE14G24   29.73F HX  91
LYNN LAKE      PTSUNNY   73  59  60 SW9G18    29.63R
CHURCHILL      PTSUNNY   59  54  82 E10       29.77S
GILLAM         PTSUNNY   73  63  68 SE5       29.71F
$$
                ***SASKATCHEWAN***

CITY           SKY/WX    TMP DP  RH WIND       PRES   REMARKS
ESTEVAN        PTSUNNY   81  66  61 N10       29.72R
KINDERSLEY     CLOUDY    54  43  66 NW9       29.95F
LLOYDMINSTER   MOSUNNY   57  41  54 W14       29.92S
PRINCE ALBERT  CLOUDY    57  50  77 W13       29.90R
REGINA         CLOUDY    70  46  43 N22       29.83F



USA.gov is the U.S. government's official web portal to all federal, state and local government web resources and services.